Wind_Speed
22 23 23 23 23 17 13 12 11 11 10 8 7 7 7 6 5 5 5 4 4 4 3 3 2 2 3 4 5 6 7 7 9 10 11 10 10 10 10 9 8 8 7 6 6 6 6 6 6
22 21 23 26 20 13 13 13 12 12 11 10 9 9 8 6 6 6 5 5 4 4 4 3 3 3 3 5 5 6 6 7 8 10 10 9 9 9 9 8 8 7 6 6 5 5 5 6 6
21 23 27 23 13 12 13 13 14 13 12 12 11 10 9 8 7 7 6 6 5 5 5 4 4 4 4 3 4 5 6 6 8 8 9 9 9 9 8 7 7 7 6 5 5 5 5 5 6
22 25 26 17 13 14 14 13 14 14 13 12 12 11 10 9 9 8 7 6 6 6 6 5 4 4 3 3 3 4 5 6 6 7 8 8 8 8 8 7 6 6 5 5 4 4 4 5 5
24 28 20 14 14 15 14 14 14 14 14 13 12 12 12 12 10 9 8 7 7 6 6 6 5 4 3 3 3 3 4 5 5 6 7 7 7 8 7 7 6 5 5 5 4 4 4 4 4
27 24 14 12 13 14 14 14 14 14 15 14 14 13 13 13 12 11 10 8 7 7 6 6 5 4 4 3 3 3 3 3 4 5 6 6 7 7 7 6 6 5 5 5 4 4 4 4 4
23 18 12 11 12 14 14 14 14 15 15 15 15 15 14 14 13 12 11 9 8 7 6 5 4 4 3 3 2 3 3 3 3 4 5 6 6 6 6 6 5 6 5 4 4 4 4 4 3
19 15 10 10 11 13 13 14 14 15 16 16 17 16 16 15 14 13 12 11 10 9 7 6 4 4 3 3 2 2 2 3 3 3 4 4 5 5 5 6 5 5 5 4 4 3 4 3 3
16 12 9 9 10 11 13 14 15 16 17 17 17 17 17 16 15 14 14 13 12 11 10 9 7 5 3 3 2 1 2 2 2 3 4 4 4 4 4 5 5 5 4 4 3 3 3 4 3
10 8 8 9 9 10 12 14 15 16 18 18 17 17 17 17 16 15 15 14 14 13 11 10 9 8 6 4 2 1 1 2 2 2 3 3 4 4 5 5 4 4 4 3 3 3 3 4 3
6 6 7 8 9 11 12 14 15 16 18 18 18 17 17 17 17 17 16 15 15 14 13 11 10 9 7 6 4 2 1 1 1 2 2 2 2 3 4 5 4 4 4 3 4 4 4 4 4
4 5 6 7 9 10 11 13 15 16 16 16 17 17 17 17 18 17 17 16 15 14 13 12 11 10 9 7 5 4 2 1 0 1 1 1 1 2 3 4 4 4 4 4 4 4 4 4 4
2 3 5 6 8 9 10 11 14 14 15 16 16 17 17 18 18 18 17 17 16 15 14 13 12 11 10 8 7 5 4 3 2 1 1 1 1 1 2 4 4 4 4 4 4 4 4 4 4
2 2 3 5 7 7 9 10 12 13 14 15 16 16 17 18 18 17 17 17 16 16 15 14 13 12 11 10 8 7 6 4 3 2 1 1 2 1 2 2 3 3 3 4 4 4 4 4 4
1 1 3 5 6 7 7 8 10 11 12 13 15 16 17 17 17 17 17 17 16 16 15 15 14 13 12 11 10 9 7 7 5 3 2 1 1 1 1 2 2 2 3 3 3 4 4 4 4
2 2 3 5 7 7 6 6 8 10 11 12 13 14 15 16 16 17 17 16 16 16 15 15 14 13 12 12 11 10 9 8 7 6 3 2 2 2 2 1 1 2 2 2 3 4 4 4 4
4 4 4 7 7 6 5 5 8 10 9 11 12 13 14 15 16 16 16 16 15 15 15 15 14 13 12 12 11 11 10 9 9 8 5 4 3 2 2 2 2 3 2 2 2 3 4 4 4
6 6 6 7 8 7 5 5 8 10 10 10 10 11 11 13 14 14 15 15 15 15 15 15 14 13 13 12 11 11 10 10 9 8 7 5 4 3 3 2 2 2 2 2 3 3 4 5 5
10 10 9 9 9 9 6 5 7 9 9 10 10 10 10 11 12 12 13 14 14 14 14 14 14 13 13 12 12 11 11 10 10 9 9 8 6 5 4 3 2 2 3 3 3 4 5 6 6
12 12 11 11 11 10 7 6 8 10 9 10 10 10 9 10 10 11 12 12 13 13 14 14 14 14 13 12 12 12 12 11 11 10 10 9 8 6 5 4 4 2 2 3 4 5 5 6 7
15 14 13 12 12 11 11 9 10 11 10 10 10 10 9 9 10 10 10 11 11 12 12 13 13 13 13 13 12 12 12 11 11 11 10 9 8 7 6 5 5 4 3 3 3 4 5 6 7
17 16 15 15 15 13 12 12 12 14 13 11 11 10 10 9 9 9 10 9 10 10 11 11 12 13 12 12 12 12 12 12 12 12 11 9 9 8 7 7 6 6 5 5 5 6 6 7 8
19 18 17 17 17 15 14 14 14 15 15 12 12 12 10 9 9 9 9 9 9 9 10 10 11 12 12 11 11 11 11 11 11 11 11 10 9 10 8 7 6 6 6 6 6 7 7 7 7
21 19 18 17 17 19 16 15 16 16 17 15 14 13 13 11 10 9 9 9 9 9 9 9 10 10 11 11 11 11 11 11 11 11 11 10 10 10 9 9 8 7 7 7 7 8 8 8 8
22 20 19 18 19 20 17 18 19 20 19 17 16 15 14 14 12 10 10 10 10 10 10 9 10 10 10 11 10 10 11 11 11 11 11 11 10 10 11 10 9 8 8 8 9 9 8 9 9
24 23 22 21 20 18 17 19 19 19 19 20 19 18 17 15 15 13 12 11 11 11 11 11 11 10 10 10 10 10 10 11 11 11 11 10 11 11 11 10 10 10 10 10 10 10 10 10 10
25 25 23 23 22 21 20 20 20 19 19 19 19 19 18 17 16 16 14 14 13 12 12 12 11 11 11 10 10 10 10 11 11 11 11 11 12 12 11 11 10 10 11 11 11 10 10 10 11
28 25 24 25 25 23 21 21 21 22 21 20 20 19 20 19 19 18 16 15 15 14 14 13 12 12 12 11 11 11 11 12 12 13 13 13 13 13 13 12 12 11 12 12 12 12 12 12 12
27 27 27 26 25 23 22 22 21 21 21 22 22 22 22 20 20 20 18 17 17 16 15 15 14 14 13 13 13 13 13 13 13 14 14 14 15 15 14 14 13 13 14 14 14 14 14 14 14
27 27 27 28 28 27 25 25 23 22 21 22 23 24 23 21 21 21 20 20 20 19 19 18 17 16 15 15 15 15 15 15 15 15 16 16 16 16 16 16 16 16 16 16 16 16 15 15 15
Wind_Direction
69 68 65 57 52 48 42 42 44 43 46 50 49 49 45 42 39 29 37 40 45 52 62 86 110 126 149 158 159 153 154 151 155 156 154 153 153 152 149 144 140 135 131 128 126 124 124 118 113
70 67 63 56 50 36 35 40 46 48 49 48 46 46 42 42 37 33 37 46 52 55 62 67 93 81 119 138 146 150 152 153 158 161 160 160 157 154 151 149 145 139 134 129 125 126 128 123 118
70 64 59 55 40 33 35 40 42 45 46 46 45 44 42 39 37 36 40 51 58 62 66 71 78 78 88 115 141 151 157 157 161 166 167 163 160 158 156 153 148 143 139 133 130 128 134 129 122
68 63 59 50 31 35 39 41 41 43 43 44 45 44 43 41 41 41 44 54 57 61 62 68 75 75 71 70 122 143 153 158 162 167 171 166 162 161 157 156 153 148 144 141 138 133 132 133 130
66 61 54 36 29 35 38 41 41 40 41 41 43 44 45 46 46 47 50 52 56 55 58 66 75 77 77 82 100 125 149 154 159 164 171 169 165 163 161 159 160 157 154 155 151 145 140 140 140
63 60 47 30 28 36 40 42 40 39 41 42 44 44 46 47 49 48 49 49 52 55 57 66 77 81 81 91 111 126 138 148 150 156 169 167 167 167 167 164 166 165 159 157 155 150 152 151 147
62 62 46 27 25 38 40 45 44 40 40 41 43 44 44 47 49 49 49 48 47 50 53 64 73 78 87 95 98 126 133 138 141 152 159 163 168 173 173 171 170 168 162 162 158 153 157 163 161
64 63 49 33 27 39 38 42 47 45 42 41 43 42 42 46 47 49 49 50 50 50 49 53 63 77 80 81 93 140 158 157 149 159 170 174 176 177 182 174 169 170 170 169 166 171 176 181 176
60 58 45 35 32 38 38 40 44 43 43 44 44 43 44 44 45 48 49 48 48 49 49 49 49 57 70 71 83 124 169 180 178 179 181 182 187 189 185 179 178 176 173 175 181 187 199 191 178
55 52 50 40 35 39 42 41 40 39 43 43 43 43 45 45 45 47 48 48 47 47 48 48 48 52 57 64 76 109 164 185 186 190 191 189 198 201 196 188 183 186 181 187 192 198 198 186 182
61 51 49 46 39 39 42 42 42 40 41 43 43 42 43 44 44 45 46 46 46 47 47 47 48 49 48 51 56 68 138 176 191 190 190 198 205 204 206 197 189 190 194 200 202 202 191 186 189
65 56 47 46 44 43 41 40 43 43 41 42 43 44 43 43 44 43 44 44 44 45 44 44 43 43 43 46 49 49 50 64 236 221 207 227 240 215 208 199 201 204 213 217 211 211 202 201 206
64 50 41 38 42 41 39 37 37 38 38 40 41 42 42 43 45 45 44 43 44 44 43 41 40 40 41 44 45 40 39 37 33 12 324 314 303 261 228 212 208 209 220 223 222 223 214 215 214
137 85 27 22 24 30 33 29 31 29 32 35 38 39 41 42 42 42 42 43 43 43 42 41 40 40 41 42 42 39 38 38 36 22 359 329 315 294 257 227 214 226 229 222 222 232 233 235 231
150 32 359 350 0 360 22 24 21 20 23 31 36 38 39 40 41 40 41 41 41 41 42 41 40 40 40 41 41 39 37 37 37 24 11 346 305 307 273 251 230 230 224 227 234 242 251 245 240
220 305 307 321 327 333 8 12 358 7 16 23 30 34 36 37 38 39 40 40 39 39 39 39 39 39 40 39 38 38 38 35 33 35 28 18 344 314 297 279 259 254 242 249 250 243 248 247 251
231 266 282 297 302 312 336 343 338 352 4 13 19 25 31 35 36 36 37 37 36 35 35 36 37 37 38 38 37 37 38 34 30 30 36 46 28 3 323 300 282 271 261 260 259 249 257 260 261
233 237 246 269 280 289 295 316 324 333 345 358 7 16 22 27 29 31 32 33 33 34 34 34 35 36 37 38 37 36 35 33 30 29 38 39 39 34 19 346 286 269 256 263 274 266 263 265 266
227 234 236 247 262 273 275 282 302 311 327 340 352 2 9 15 18 21 26 28 29 32 32 32 33 34 34 35 36 36 34 33 32 30 34 36 36 39 35 15 336 268 252 268 281 275 271 272 275
232 240 240 255 260 267 266 263 278 296 308 320 332 342 352 1 8 12 15 21 24 27 28 28 28 31 31 31 33 33 32 31 29 31 32 33 33 35 30 16 3 344 288 280 282 281 279 283 282
235 237 239 246 259 268 268 266 269 285 294 302 315 324 333 342 355 3 4 11 17 18 20 21 22 26 28 27 28 28 28 28 25 22 24 28 27 26 20 13 7 360 346 327 308 300 290 286 288
240 241 242 245 251 251 261 267 272 275 279 289 303 313 319 322 333 349 353 359 5 8 12 16 18 20 21 21 22 24 25 25 23 20 20 21 18 15 11 7 357 349 337 332 331 322 312 303 294
238 236 238 244 251 251 245 253 266 273 271 277 290 302 306 310 319 330 340 345 349 354 0 6 9 12 12 13 15 16 17 18 17 17 16 15 13 10 5 2 356 349 339 333 332 330 326 321 312
235 237 241 245 248 252 247 247 253 256 265 274 281 287 293 296 302 315 325 332 335 338 343 350 355 359 1 4 7 8 9 8 9 11 12 12 11 8 4 360 356 350 339 331 327 324 325 326 321
234 236 241 246 249 253 252 245 250 257 263 268 275 281 281 283 287 297 302 310 319 325 328 332 340 344 347 351 354 358 360 359 359 1 4 6 3 0 359 356 353 348 341 335 330 327 323 324 322
233 233 237 242 249 253 251 248 248 254 262 263 267 271 273 276 280 286 290 296 304 311 314 319 324 329 333 337 342 345 348 351 350 350 354 358 357 355 353 349 348 349 344 338 332 329 321 319 321
230 231 234 246 256 256 254 258 255 252 254 258 259 265 269 271 274 277 278 285 292 297 301 305 310 315 320 323 327 332 334 340 343 342 343 345 346 347 345 342 341 342 342 337 332 328 322 318 319
231 229 231 235 243 250 256 259 257 253 251 255 260 265 266 268 271 273 274 276 282 285 290 296 300 304 305 309 312 316 322 325 328 333 332 331 331 334 335 333 332 332 331 331 328 322 318 315 313
234 231 230 233 235 241 249 253 256 256 251 254 262 270 268 263 263 266 265 270 275 280 284 288 290 294 295 298 301 304 309 314 318 322 324 325 324 324 324 324 322 320 321 322 320 319 315 313 312
232 232 231 235 235 234 241 253 257 258 256 254 256 262 264 262 261 263 263 266 268 272 276 281 283 284 288 291 293 294 298 303 307 312 316 318 318 316 315 316 315 312 312 313 316 314 313 311 312
Height
5894 5892 5891 5890 5888 5890 5889 5888 5886 5884 5882 5881 5879 5878 5877 5876 5876 5877 5874 5872 5873 5872 5872 5872 5872 5872 5872 5873 5874 5874 5875 5876 5877 5878 5879 5880 5881 5882 5883 5884 5884 5885 5886 5887 5887 5888 5888 5889 5890
5897 5896 5893 5891 5894 5894 5892 5890 5888 5886 5885 5883 5881 5880 5879 5877 5876 5875 5873 5874 5873 5873 5873 5873 5873 5874 5874 5874 5875 5875 5876 5877 5878 5879 5880 5881 5882 5883 5884 5884 5885 5886 5887 5888 5888 5889 5889 5890 5890
5899 5896 5894 5896 5900 5897 5895 5892 5890 5888 5886 5885 5883 5882 5880 5879 5877 5876 5875 5875 5874 5874 5874 5874 5875 5875 5875 5876 5876 5876 5877 5878 5879 5880 5881 5882 5883 5884 5884 5885 5886 5887 5888 5888 5889 5889 5890 5890 5891
5901 5897 5898 5904 5902 5900 5897 5895 5892 5891 5889 5887 5885 5884 5881 5880 5879 5877 5877 5876 5876 5875 5875 5875 5876 5876 5876 5876 5877 5877 5878 5879 5880 5880 5881 5882 5883 5884 5885 5886 5887 5888 5888 5889 5889 5890 5891 5891 5892
5902 5900 5905 5907 5904 5902 5900 5897 5895 5893 5891 5889 5887 5885 5883 5882 5880 5879 5878 5877 5877 5877 5876 5876 5877 5877 5877 5877 5878 5878 5879 5879 5880 5881 5882 5883 5884 5885 5886 5886 5887 5888 5889 5889 5890 5890 5891 5892 5892
5903 5907 5912 5910 5908 5905 5903 5900 5898 5896 5894 5891 5889 5887 5886 5884 5882 5881 5880 5879 5879 5878 5878 5878 5878 5878 5878 5878 5879 5879 5880 5881 5881 5882 5883 5883 5884 5885 5886 5887 5888 5888 5889 5890 5890 5891 5891 5892 5893
5909 5912 5915 5914 5911 5908 5906 5903 5901 5898 5896 5894 5892 5890 5888 5886 5885 5883 5882 5881 5880 5880 5879 5879 5879 5879 5879 5880 5880 5880 5880 5881 5882 5883 5883 5884 5885 5886 5887 5887 5888 5889 5889 5890 5890 5891 5892 5892 5893
5914 5918 5918 5916 5914 5911 5908 5906 5903 5901 5899 5896 5894 5893 5890 5889 5887 5885 5884 5883 5882 5881 5881 5880 5880 5880 5880 5880 5881 5881 5881 5882 5883 5883 5884 5885 5885 5886 5887 5887 5888 5889 5890 5890 5891 5891 5892 5892 5893
5920 5923 5921 5919 5916 5914 5911 5908 5906 5904 5901 5899 5897 5896 5894 5891 5889 5888 5886 5885 5883 5883 5882 5882 5881 5881 5881 5881 5881 5882 5882 5883 5883 5884 5884 5885 5885 5886 5887 5888 5888 5889 5890 5890 5891 5891 5892 5892 5893
5925 5925 5923 5921 5918 5916 5914 5911 5909 5907 5904 5902 5900 5898 5896 5894 5892 5890 5888 5887 5886 5885 5884 5883 5883 5882 5882 5882 5882 5883 5883 5883 5884 5884 5885 5885 5885 5886 5887 5888 5888 5889 5890 5890 5891 5891 5892 5892 5893
5927 5926 5925 5923 5920 5918 5916 5914 5912 5910 5907 5905 5903 5901 5899 5897 5895 5893 5891 5889 5888 5887 5886 5885 5885 5884 5884 5883 5883 5883 5884 5884 5884 5884 5885 5885 5886 5886 5887 5887 5888 5889 5890 5890 5891 5891 5892 5892 5893
5928 5928 5926 5924 5922 5920 5919 5917 5915 5913 5911 5909 5906 5904 5902 5900 5897 5895 5894 5892 5891 5890 5888 5887 5887 5886 5885 5884 5884 5884 5884 5884 5884 5884 5885 5885 5886 5886 5886 5887 5888 5889 5889 5890 5891 5891 5892 5892 5893
5929 5928 5927 5926 5924 5923 5921 5919 5917 5915 5913 5911 5909 5906 5904 5902 5900 5898 5897 5895 5893 5892 5891 5889 5888 5887 5886 5886 5885 5885 5885 5885 5885 5884 5885 5885 5886 5886 5886 5887 5888 5888 5889 5890 5890 5891 5892 5892 5893
5928 5928 5928 5927 5926 5924 5923 5921 5920 5918 5916 5914 5911 5909 5907 5905 5903 5901 5900 5898 5896 5895 5893 5892 5890 5889 5888 5887 5887 5886 5886 5885 5885 5885 5885 5885 5885 5886 5886 5887 5887 5888 5889 5889 5890 5891 5891 5892 5892
5928 5928 5928 5928 5927 5926 5925 5924 5921 5920 5918 5916 5914 5911 5909 5907 5906 5904 5902 5901 5899 5897 5896 5894 5893 5891 5890 5889 5888 5887 5886 5886 5885 5885 5885 5885 5885 5886 5886 5886 5887 5888 5888 5889 5889 5890 5891 5891 5892
5927 5928 5929 5929 5928 5927 5927 5925 5923 5922 5920 5918 5916 5914 5912 5910 5908 5906 5905 5903 5901 5900 5898 5897 5895 5894 5892 5891 5890 5889 5888 5887 5885 5884 5885 5885 5885 5885 5886 5886 5887 5887 5887 5888 5889 5889 5890 5890 5891
5927 5929 5930 5930 5929 5928 5928 5926 5924 5923 5921 5919 5918 5916 5914 5913 5911 5909 5907 5905 5904 5902 5900 5899 5897 5896 5894 5893 5891 5890 5889 5888 5886 5886 5885 5885 5885 5885 5885 5885 5886 5886 5887 5888 5888 5888 5889 5889 5890
5927 5928 5930 5931 5929 5929 5928 5927 5925 5924 5922 5920 5919 5918 5916 5915 5913 5911 5909 5907 5906 5904 5903 5901 5899 5898 5896 5894 5893 5892 5890 5889 5888 5887 5886 5885 5885 5885 5885 5885 5885 5886 5886 5887 5887 5888 5888 5888 5889
5925 5927 5928 5929 5928 5928 5928 5927 5926 5924 5923 5921 5920 5919 5917 5916 5914 5913 5911 5909 5908 5906 5905 5903 5901 5899 5898 5896 5895 5893 5892 5891 5889 5888 5887 5886 5885 5885 5885 5884 5884 5885 5886 5886 5886 5887 5887 5887 5887
5923 5925 5926 5928 5927 5926 5926 5927 5926 5924 5922 5922 5920 5919 5918 5916 5915 5914 5912 5911 5909 5908 5906 5904 5903 5901 5899 5898 5896 5895 5893 5892 5891 5889 5888 5887 5886 5885 5885 5884 5884 5884 5885 5885 5885 5885 5886 5886 5886
5921 5922 5924 5925 5925 5925 5925 5925 5925 5924 5922 5921 5920 5919 5918 5917 5916 5914 5913 5912 5911 5909 5907 5906 5904 5902 5901 5899 5898 5896 5894 5893 5892 5890 5888 5887 5886 5886 5885 5885 5884 5884 5884 5884 5884 5884 5884 5884 5884
5917 5920 5921 5923 5923 5923 5924 5923 5922 5922 5921 5920 5919 5918 5918 5916 5915 5914 5913 5912 5911 5910 5908 5907 5905 5903 5902 5900 5899 5897 5896 5894 5892 5890 5889 5888 5887 5886 5885 5885 5884 5884 5884 5884 5883 5883 5882 5882 5882
5913 5916 5917 5919 5919 5919 5920 5921 5921 5919 5917 5917 5917 5917 5917 5916 5915 5914 5913 5912 5911 5910 5909 5907 5906 5904 5903 5901 5900 5898 5896 5895 5893 5891 5889 5888 5887 5886 5885 5884 5884 5884 5883 5883 5883 5882 5881 5881 5880
5909 5912 5913 5914 5916 5916 5917 5918 5918 5917 5915 5915 5915 5915 5915 5914 5914 5913 5912 5911 5910 5909 5909 5908 5906 5905 5903 5902 5900 5898 5897 5895 5894 5892 5890 5888 5887 5886 5885 5884 5884 5883 5882 5882 5882 5881 5880 5879 5878
5904 5907 5910 5911 5912 5913 5914 5914 5914 5914 5914 5914 5914 5913 5913 5912 5912 5911 5911 5910 5909 5908 5908 5907 5906 5905 5903 5902 5900 5899 5897 5896 5894 5892 5890 5889 5887 5886 5885 5884 5883 5882 5882 5881 5880 5879 5878 5878 5877
5899 5903 5905 5907 5909 5910 5910 5910 5909 5909 5910 5910 5911 5910 5910 5910 5909 5909 5909 5908 5908 5907 5906 5906 5905 5904 5903 5901 5900 5898 5897 5896 5894 5892 5891 5889 5888 5886 5885 5884 5883 5881 5880 5880 5879 5878 5877 5876 5875
5893 5897 5901 5904 5903 5904 5905 5905 5904 5904 5905 5906 5907 5907 5907 5906 5906 5905 5905 5906 5905 5905 5904 5904 5903 5902 5901 5900 5899 5898 5896 5895 5894 5892 5890 5889 5887 5886 5884 5883 5882 5881 5879 5878 5877 5876 5875 5874 5873
5887 5891 5895 5897 5899 5899 5901 5900 5899 5899 5900 5901 5902 5903 5903 5903 5902 5902 5901 5902 5902 5902 5902 5901 5901 5900 5900 5899 5898 5897 5895 5894 5893 5891 5889 5888 5886 5885 5883 5882 5880 5879 5878 5876 5875 5874 5873 5872 5870
5881 5884 5887 5890 5892 5895 5897 5896 5895 5894 5894 5896 5898 5898 5898 5899 5899 5898 5897 5898 5898 5898 5899 5899 5898 5898 5897 5896 5896 5895 5893 5892 5891 5889 5888 5886 5885 5883 5881 5880 5879 5877 5876 5874 5873 5871 5870 5869 5867
5874 5877 5881 5884 5885 5888 5890 5891 5889 5889 5890 5891 5891 5892 5892 5894 5894 5894 5895 5895 5895 5895 5895 5895 5895 5894 5894 5893 5893 5892 5891 5890 5888 5887 5885 5884 5882 5881 5879 5878 5876 5875 5873 5871 5870 5869 5867 5866 5864